Wind_Speed
8 8 8 8 8 9 8 8 8 8 8 8 7 7 7 7 7 7 7 6 6 6 6 6 6 6 6 6 6 6 7 6 6 5 4 4 5 5 4 3 3 3 4
8 8 8 7 7 8 8 8 8 8 8 7 7 7 7 7 6 6 6 6 6 7 7 6 6 6 5 5 5 6 6 6 5 5 4 4 4 4 4 4 4 3 2
7 8 8 7 7 7 7 7 8 8 8 7 7 7 7 7 6 6 7 6 6 7 6 6 6 5 6 5 6 6 6 5 4 4 4 4 3 3 3 3 3 3 4
8 7 8 8 8 7 7 8 8 8 8 8 7 7 7 7 7 6 6 6 6 6 6 6 5 5 6 6 7 6 6 5 4 4 4 4 4 3 4 4 5 4 4
8 7 7 7 7 6 7 7 7 7 7 7 7 7 6 5 6 6 5 6 6 6 6 5 5 5 6 7 7 7 6 6 5 4 5 5 5 5 5 5 5 5 5
7 7 7 7 7 6 7 7 7 7 7 7 7 6 6 5 5 5 5 5 5 5 5 5 5 6 6 6 7 7 6 6 5 4 4 5 5 5 6 6 5 5 5
7 7 7 7 6 6 6 6 6 6 6 6 6 5 5 5 5 5 5 5 5 5 5 5 6 6 6 6 6 6 5 5 5 4 5 5 5 5 6 5 5 6 6
7 7 7 7 6 6 6 6 6 6 6 6 6 5 5 5 5 5 5 5 6 5 5 4 5 5 5 5 6 5 5 5 5 5 5 6 6 5 5 5 5 5 6
6 6 6 6 5 5 5 5 5 5 5 6 5 5 5 4 4 4 4 4 4 4 4 4 4 5 5 5 5 5 5 5 6 6 6 6 6 5 5 5 5 5 6
6 6 5 5 4 4 5 5 5 5 5 4 4 5 4 4 3 3 3 4 4 4 3 3 3 4 4 4 4 4 4 5 6 6 6 5 5 6 6 5 5 6 7
6 6 5 5 4 4 5 5 5 5 4 4 4 4 4 3 3 3 3 3 4 4 3 2 3 3 3 4 4 4 4 5 5 6 6 6 6 7 7 6 7 8 7
6 6 6 5 5 5 5 6 5 5 4 5 4 4 4 3 3 3 2 2 3 3 3 2 2 3 3 3 4 5 5 5 5 6 6 6 6 6 6 7 7 7 7
6 5 5 5 5 5 5 6 5 5 5 5 4 4 3 3 3 3 2 2 2 2 2 2 3 3 4 3 3 3 4 5 5 5 5 6 6 6 7 7 8 8 8
6 6 5 6 6 5 5 5 5 4 5 5 4 4 3 3 2 3 2 2 1 2 2 2 3 2 3 3 4 4 4 5 5 5 6 5 6 6 7 7 8 8 8
6 6 6 7 6 6 5 4 4 4 4 4 4 4 3 3 2 3 2 1 2 2 2 2 3 3 4 4 4 4 4 4 4 4 5 5 5 6 6 6 7 8 8
5 6 6 6 6 6 5 4 4 4 4 4 4 4 3 3 3 2 1 1 1 2 2 3 3 3 3 3 4 4 4 4 4 4 5 4 4 5 6 6 7 8 9
5 6 5 6 5 5 5 4 4 4 5 5 4 4 4 4 3 3 2 1 1 1 1 1 1 2 2 3 3 4 4 3 4 5 5 5 4 5 6 7 7 8 8
5 5 5 5 5 5 4 4 4 4 4 5 4 4 4 3 3 3 3 3 2 2 1 1 1 2 2 2 3 3 4 3 3 4 4 5 5 5 6 6 7 8 9
5 5 5 5 5 5 4 4 4 4 4 4 4 4 4 4 4 4 4 3 3 3 2 2 2 1 1 1 2 3 4 3 4 4 5 6 6 6 6 7 8 8 9
4 5 5 4 4 4 4 4 4 4 4 3 4 4 4 4 4 4 4 4 3 3 3 2 2 1 1 1 3 4 4 4 4 4 5 6 6 6 6 7 8 8 8
3 4 4 3 4 4 4 3 3 3 3 3 2 3 3 3 4 4 5 4 4 4 3 2 2 1 1 3 4 4 4 4 5 5 5 6 6 6 7 8 8 8 9
3 3 3 3 3 3 3 3 2 2 2 2 2 2 2 2 3 3 4 5 4 4 4 3 2 2 2 3 4 5 5 6 5 6 6 7 7 7 8 8 9 9 9
2 2 2 3 2 2 2 2 2 2 1 2 2 1 2 3 2 3 4 4 4 4 4 4 3 3 3 3 4 5 6 6 6 7 7 8 8 8 8 8 9 10 10
2 1 1 2 2 1 1 1 1 1 1 1 2 2 2 3 3 3 3 3 3 3 3 4 3 4 4 5 6 6 6 6 7 8 8 9 8 8 9 9 10 10 10
3 2 2 2 1 2 2 1 1 1 1 1 1 2 2 2 3 3 3 3 3 3 3 3 4 5 5 5 6 7 6 6 7 8 9 9 9 8 8 9 10 10 11
4 4 4 3 3 3 3 2 2 2 2 1 1 2 2 2 2 2 2 3 3 4 4 4 4 5 6 6 7 7 7 7 7 8 8 9 9 9 9 10 11 11 12
Wind_Direction
108 109 108 107 109 116 118 121 118 115 119 122 127 133 139 147 153 158 159 156 158 162 164 168 174 166 164 166 170 174 182 189 189 194 200 215 214 216 230 238 240 245 250
108 106 108 108 110 114 117 114 116 119 119 121 125 133 140 144 150 154 159 157 159 160 163 165 168 168 167 172 179 186 193 192 196 203 213 226 222 226 238 246 246 259 263
107 104 107 107 109 112 116 115 115 118 125 127 128 134 141 141 141 144 152 157 157 158 163 166 168 172 179 185 190 193 200 205 207 217 229 236 231 238 248 252 248 254 267
106 103 106 107 107 110 117 121 121 124 126 129 131 132 138 144 144 144 153 162 163 162 165 165 170 177 184 194 201 202 207 214 226 232 247 254 256 262 259 261 261 266 272
106 106 104 103 100 106 118 122 124 129 130 129 131 133 137 143 148 155 161 165 164 167 167 172 179 188 191 196 200 205 210 216 229 244 258 261 265 261 255 258 265 269 273
107 103 101 98 98 106 115 120 124 132 134 132 135 137 137 139 147 149 157 167 165 170 174 184 192 193 196 203 205 210 217 225 238 256 254 261 263 260 254 256 259 268 274
102 101 99 99 97 102 110 117 125 128 137 138 134 137 139 138 144 147 153 162 163 169 178 192 203 207 210 215 216 220 232 237 246 257 264 270 270 257 247 250 255 264 273
107 102 98 95 92 96 108 119 124 128 137 140 138 141 143 142 143 152 157 162 174 178 187 198 208 218 219 222 219 231 245 247 253 256 271 277 275 256 244 248 259 263 270
111 107 101 95 87 89 104 118 121 126 131 137 137 143 145 143 145 160 167 173 185 195 198 203 210 214 225 227 231 236 237 245 256 265 266 266 258 244 250 256 259 263 273
114 110 100 91 91 89 100 113 115 121 130 138 140 141 144 147 146 149 171 184 185 188 201 204 203 214 227 236 241 246 243 253 255 256 258 259 252 249 257 260 265 271 273
105 107 99 91 93 98 108 115 116 122 128 136 136 139 136 135 138 147 157 169 172 173 186 197 212 232 241 243 243 242 244 256 258 257 259 266 256 254 259 263 271 271 272
95 96 93 88 92 98 113 112 115 121 127 134 135 137 134 130 133 154 165 173 188 185 195 213 228 245 251 259 251 244 240 245 258 262 262 267 261 263 268 272 277 277 275
90 91 90 96 95 95 102 105 108 113 114 125 131 133 131 128 129 146 153 150 171 176 193 219 235 247 256 269 277 255 237 245 261 266 265 258 262 267 273 275 277 276 276
89 83 82 92 94 98 100 101 105 109 107 115 120 123 123 126 143 146 146 146 188 196 207 222 234 242 254 261 259 254 249 252 260 268 264 264 270 269 270 272 275 278 281
84 80 83 86 93 93 92 88 97 100 104 107 111 116 118 124 133 147 156 170 211 226 230 234 248 244 240 253 263 256 261 264 254 260 264 267 271 276 279 285 286 284 283
81 78 81 84 90 85 84 84 90 96 88 88 101 103 100 96 95 96 128 179 216 218 233 247 268 258 268 270 262 263 267 265 260 261 268 268 276 283 285 292 295 292 289
80 76 80 81 80 77 76 80 87 92 92 93 92 87 86 81 74 67 52 27 334 332 319 311 287 270 280 267 268 288 293 280 271 264 266 266 273 288 296 299 297 299 296
76 79 77 77 73 71 77 85 87 83 88 88 82 82 80 73 62 53 43 40 29 24 21 333 296 276 286 275 275 295 300 300 296 288 283 283 282 288 300 304 301 299 299
73 77 78 76 70 69 76 88 95 86 84 85 78 74 74 68 56 46 41 36 32 35 30 2 332 293 297 289 293 295 298 309 315 310 310 307 304 300 298 299 304 304 305
70 70 74 73 71 70 79 87 96 89 82 80 79 71 66 66 57 48 46 53 52 41 26 16 8 343 331 315 325 321 318 318 308 312 314 314 312 315 308 304 306 306 305
67 69 62 62 64 68 79 80 89 87 82 79 71 67 66 62 53 53 48 53 57 48 36 13 2 360 317 320 331 326 321 320 315 312 313 315 318 318 317 312 310 308 307
61 57 53 54 56 67 79 74 74 72 74 71 65 66 56 48 42 52 57 61 62 54 43 33 29 12 330 326 330 320 319 318 319 322 315 309 311 310 310 312 312 311 311
33 45 47 44 46 57 66 63 75 73 61 58 55 31 19 28 45 47 53 53 53 47 39 36 24 360 348 336 334 330 323 316 316 319 317 313 307 304 305 305 309 311 313
320 341 356 6 18 11 16 36 42 27 33 38 32 30 19 24 29 29 31 33 28 25 25 20 1 350 341 334 330 328 327 317 314 317 319 315 310 307 305 305 309 311 312
286 293 304 306 324 336 331 328 341 353 355 349 356 4 6 14 17 16 13 15 9 2 4 6 352 339 334 327 326 326 322 320 319 318 321 317 313 312 315 313 310 310 312
281 286 293 295 303 307 307 310 333 337 324 322 314 317 325 340 350 359 356 352 350 348 351 344 341 335 328 324 324 325 325 325 330 329 326 323 320 315 312 309 307 307 309
Height
5888 5888 5887 5887 5887 5887 5886 5886 5887 5887 5887 5888 5888 5888 5888 5889 5889 5890 5890 5890 5891 5891 5892 5893 5894 5895 5896 5896 5897 5898 5898 5899 5900 5900 5901 5901 5901 5901 5901 5901 5901 5901 5901
5889 5889 5889 5889 5888 5888 5888 5888 5887 5888 5888 5888 5888 5888 5888 5889 5889 5889 5890 5890 5891 5891 5892 5893 5894 5895 5896 5897 5897 5898 5898 5899 5899 5900 5900 5900 5901 5901 5901 5901 5901 5901 5900
5890 5890 5890 5890 5889 5889 5889 5889 5889 5889 5889 5889 5889 5889 5889 5889 5889 5890 5890 5891 5891 5892 5893 5894 5894 5895 5896 5897 5897 5898 5898 5899 5899 5900 5900 5900 5900 5901 5901 5901 5900 5900 5900
5890 5891 5891 5891 5890 5890 5890 5890 5890 5890 5890 5890 5890 5890 5890 5890 5890 5890 5891 5891 5892 5892 5893 5894 5895 5895 5896 5897 5897 5898 5898 5899 5899 5900 5900 5900 5900 5900 5900 5900 5900 5900 5900
5891 5892 5892 5891 5891 5891 5891 5891 5891 5891 5891 5891 5891 5891 5891 5891 5891 5891 5891 5892 5892 5893 5893 5894 5895 5895 5896 5897 5897 5898 5898 5899 5899 5899 5899 5899 5899 5899 5899 5899 5899 5899 5899
5893 5893 5893 5893 5893 5892 5892 5892 5892 5892 5892 5891 5891 5891 5891 5891 5891 5891 5891 5892 5892 5893 5893 5894 5894 5895 5896 5896 5897 5898 5898 5898 5899 5898 5898 5898 5898 5898 5899 5899 5899 5898 5898
5894 5894 5894 5894 5894 5893 5893 5892 5892 5892 5892 5892 5892 5892 5892 5891 5891 5892 5891 5892 5892 5892 5893 5894 5895 5895 5896 5896 5897 5897 5898 5898 5898 5897 5897 5897 5897 5897 5898 5898 5898 5898 5898
5895 5895 5895 5895 5894 5894 5894 5893 5893 5893 5893 5893 5892 5892 5892 5892 5892 5892 5892 5892 5892 5893 5894 5894 5895 5895 5896 5896 5896 5897 5897 5897 5897 5897 5897 5896 5896 5896 5897 5897 5897 5896 5897
5896 5896 5896 5895 5895 5895 5894 5894 5894 5894 5893 5893 5893 5892 5892 5893 5893 5892 5892 5893 5893 5893 5894 5894 5894 5895 5895 5895 5896 5896 5896 5896 5896 5896 5896 5895 5895 5895 5895 5895 5895 5895 5895
5897 5897 5897 5896 5896 5895 5895 5894 5894 5894 5894 5894 5893 5893 5893 5893 5893 5893 5893 5893 5893 5893 5893 5894 5894 5894 5894 5894 5895 5895 5895 5895 5895 5895 5895 5894 5894 5894 5895 5895 5895 5894 5894
5899 5898 5898 5897 5896 5896 5895 5895 5895 5894 5894 5894 5894 5894 5894 5893 5893 5893 5893 5893 5893 5893 5893 5893 5894 5894 5894 5894 5894 5894 5894 5894 5894 5894 5894 5894 5894 5894 5894 5894 5894 5893 5893
5900 5899 5899 5898 5897 5897 5896 5896 5895 5895 5895 5895 5894 5894 5894 5893 5893 5893 5893 5893 5893 5893 5893 5893 5893 5893 5893 5893 5892 5893 5893 5893 5893 5893 5893 5894 5894 5893 5893 5893 5892 5892 5892
5901 5900 5900 5899 5898 5898 5897 5897 5896 5896 5895 5895 5895 5894 5894 5894 5893 5893 5893 5893 5893 5892 5892 5892 5893 5892 5893 5893 5893 5893 5892 5893 5893 5892 5893 5893 5893 5892 5892 5892 5891 5891 5890
5902 5901 5900 5899 5899 5898 5898 5897 5897 5896 5896 5895 5895 5895 5894 5894 5894 5894 5893 5893 5893 5893 5892 5892 5892 5892 5892 5892 5892 5892 5892 5892 5892 5892 5891 5891 5892 5891 5891 5890 5890 5889 5889
5903 5902 5901 5900 5900 5899 5899 5898 5898 5897 5897 5896 5895 5895 5895 5894 5894 5894 5893 5893 5893 5892 5892 5892 5892 5892 5892 5892 5891 5891 5891 5891 5891 5890 5890 5890 5890 5890 5889 5889 5888 5888 5887
5904 5903 5902 5901 5900 5900 5899 5899 5898 5898 5897 5896 5896 5896 5895 5895 5894 5894 5893 5893 5892 5891 5891 5891 5891 5891 5891 5891 5891 5891 5890 5890 5890 5889 5889 5889 5889 5888 5888 5887 5887 5886 5886
5905 5904 5903 5902 5901 5901 5900 5899 5899 5898 5898 5897 5897 5896 5896 5895 5894 5894 5893 5892 5891 5891 5890 5890 5890 5890 5891 5890 5890 5890 5890 5890 5889 5888 5888 5888 5888 5887 5887 5886 5885 5885 5884
5906 5904 5904 5903 5902 5901 5901 5900 5900 5899 5898 5898 5898 5897 5896 5895 5895 5894 5893 5892 5891 5890 5890 5890 5890 5890 5890 5890 5890 5890 5889 5889 5888 5888 5887 5887 5886 5886 5885 5885 5884 5883 5882
5907 5906 5905 5904 5903 5902 5902 5901 5900 5900 5899 5899 5898 5898 5897 5896 5895 5894 5892 5891 5891 5890 5890 5890 5890 5890 5890 5890 5890 5889 5888 5888 5888 5887 5886 5886 5885 5885 5884 5883 5883 5882 5881
5908 5907 5906 5905 5904 5903 5902 5902 5901 5901 5900 5899 5899 5898 5898 5897 5896 5895 5893 5892 5891 5891 5891 5890 5890 5890 5890 5890 5889 5889 5888 5887 5887 5886 5886 5885 5884 5884 5883 5882 5881 5880 5879
5909 5908 5907 5906 5905 5904 5903 5903 5902 5902 5901 5900 5900 5899 5898 5898 5897 5896 5894 5893 5893 5892 5892 5891 5891 5890 5890 5890 5889 5888 5888 5887 5886 5886 5885 5884 5884 5883 5882 5881 5880 5879 5877
5909 5908 5907 5907 5906 5905 5904 5903 5903 5902 5901 5901 5900 5900 5899 5898 5897 5897 5896 5895 5894 5893 5892 5892 5891 5891 5890 5889 5889 5888 5887 5887 5886 5885 5884 5884 5883 5882 5880 5879 5878 5877 5876
5910 5909 5908 5907 5906 5905 5905 5904 5903 5903 5902 5901 5901 5900 5900 5899 5898 5897 5896 5896 5895 5894 5893 5892 5891 5891 5890 5889 5888 5887 5887 5886 5885 5884 5883 5882 5881 5880 5879 5878 5877 5875 5874
5910 5909 5909 5908 5907 5906 5905 5904 5904 5903 5902 5902 5901 5901 5900 5899 5898 5897 5897 5896 5895 5894 5893 5892 5892 5891 5890 5889 5888 5887 5886 5885 5884 5883 5882 5880 5879 5879 5878 5877 5875 5874 5872
5910 5909 5909 5908 5907 5906 5906 5905 5904 5903 5903 5902 5902 5901 5900 5899 5898 5898 5897 5896 5895 5894 5893 5892 5891 5890 5889 5888 5887 5886 5885 5884 5882 5881 5880 5879 5878 5877 5876 5875 5873 5872 5870
5910 5909 5908 5908 5907 5906 5905 5905 5904 5904 5903 5902 5902 5901 5900 5899 5898 5898 5897 5896 5895 5894 5893 5892 5891 5890 5889 5888 5887 5885 5884 5883 5881 5880 5879 5878 5876 5875 5874 5873 5871 5870 5868